Home   Weather   Terrebonne   Past weeks

Flag for Canada Past Weather in Terrebonne, Quebec, Canada — Yesterday and Last 2 Weeks

Now
56 °F

Cool.


Feels Like: 54 °F
Forecast: 47 / 63 °F
Wind: 8 mph from North

Location: L'Assomption Airport

Current Time: Apr 26, 2017 at 3:34:42 pm

Latest Report: Apr 26, 2017 at 3:00 pm


Visibility: N/A

Pressure: 29.90 "Hg

Humidity: 90%

Dew Point: 53 °F

Location of TerrebonneLocation

Past Weather in Terrebonne — Graph

°F

Terrebonne Temperature Yesterday

Maximum temperature yesterday: 54 °F (at 4:00 pm)
Minimum temperature yesterday: 33 °F (at 6:00 am)
Average temperature yesterday: 44 °F

High & Low Weather Summary for the Past Weeks

 TemperatureHumidityPressure
High67 °F (Apr 15, 4:00 pm)100% (Apr 11, 5:00 pm)30.53 "Hg (Apr 11, 5:00 pm)
Low27 °F (Apr 14, 6:00 am)23% (Apr 14, 4:00 pm)29.64 "Hg (Apr 16, 5:00 pm)
Average45 °F74%30.12 "Hg
* Reported Apr 11 2:00 pm — Apr 26 2:00 pm, Terrebonne, Weather by CustomWeather, © 2017

Note: Actual official high and low records may vary slightly from our data, if they occured in-between our weather recording intervals... More about our weather records

Advertising

Terrebonne Weather History for the Previous 24 Hours

Scroll right to see more
 ConditionsComfort  
Time TempWeatherWind HumidityBarometerVisibility
2:00 pm
Wed, Apr 26
53 °FCool.7 mph93%29.92 "HgN/A
1:00 pm50 °FCool.7 mph95%29.93 "HgN/A
12:00 pm50 °FCool.7 mph96%29.94 "HgN/A
11:00 am50 °FCool.7 mph97%29.95 "HgN/A
10:00 am49 °FCool.5 mph96%29.96 "HgN/A
9:00 am47 °FCool.7 mph97%29.98 "HgN/A
8:00 am46 °FCool.6 mph97%29.98 "HgN/A
7:00 am46 °FCool.5 mph97%29.99 "HgN/A
6:00 am47 °FCool.6 mph97%29.99 "HgN/A
5:00 am47 °FCool.5 mph97%30.00 "HgN/A
4:00 am47 °FCool.5 mph97%30.01 "HgN/A
3:00 am47 °FCool.6 mph97%30.03 "HgN/A
2:00 am47 °FCool.6 mph96%30.06 "HgN/A
1:00 am47 °FCool.6 mph96%30.09 "HgN/A
12:00 am47 °FCool.6 mph96%30.11 "HgN/A
11:00 pm
Tue, Apr 25
47 °FCool.5 mph96%30.12 "HgN/A
10:00 pm48 °FCool.6 mph96%30.13 "HgN/A
9:00 pm48 °FCool.5 mph90%30.14 "HgN/A
8:00 pm47 °FCool.3 mph95%30.15 "HgN/A
7:00 pm47 °FCool.2 mph84%30.16 "HgN/A
6:00 pm48 °FCool.5 mph79%30.18 "HgN/A
5:00 pm51 °FCool.6 mph65%30.19 "HgN/A
4:00 pm54 °FCool.5 mph46%30.20 "HgN/A
3:00 pm53 °FCool.6 mph45%30.22 "HgN/A
Weather by CustomWeather, © 2017

See weather overviewHow to use our weather pages